Flight Information

DEPARTURE
ONTARIO, CA
Elevation:
944
Runways:
8L/26R - 12197x150 - CONC-G
8R/26L - 10200x150 - CONC-G
Active PE Departure:
26L - 26R
Current PE ATIS:
D
Altimeter:
29.75
Remarks:
SIMULTANEOUS APPROACHES TO PARALLEL RUNWAYS IN USE. V F R DEPARTURES CONTACT CLEARANCE DELIVERY, ADVISE ON COURSE HEADING, ALTITUDE, AND IF FLIGHT FOLLOWING IS REQUESTED.
ATIS:
124.25 909-605-0056
Clearance Delivery:
118.1
Ground:
121.9
Tower:
120.6
DESTINATION
,
Elevation:
TPA:
1000 (est.)


6754.1 NM74° True-14° Var59° HDG

Flight Plan:
(click to file on line)

1. Type
2. Aircraft Identification
3. Aircraft Type / Special Equipment
4. True Airspeed
kts
5. Departure Airport
(ICAO code)
6. Arriving Airport
(ICAO code)
7. Cruising Altitude
ft
8. Alternate Airport
(ICAO code)
9. Route of Flight
10. Remarks


00:00:00 Departure ATIS: Destination ATIS:

Clearance Limit:
Route:
Altitude: Expect in minutes
Frequency:
Transponder: (7500 Hijack / 7600 Lost Comms / 7700 Emergency)


KONT 190153Z 07005KT 10SM CLR 21/M03 A2975 RMK AO2 SLP070 T02111028 $
Time: 2021-01-19T01:53:00Z
1611022023
Winds: 70 @ 5 kts
Visibility: 10.0 sm
Clouds (AGL): CLR
Temperature: 21.1 C
Dew Point: -2.8 C
Pressure: 29.749016 in Hgbr


Notes:

Data extracted from FAA Digital Chart Supplement. Effective: 0901Z Thursday, Dec 31, 2020 to 0901Z Thursday, Jan 28, 2021
Current ATIS data is provided courtisy of PilotEdge.